User: anonymous
Location: Holcomb Observatory
(44.4922°N, 73.1654°W)
Time: 02:54:46
(UTC-04:00)
Language:

Cosmos 1727 Rocket - Orbit

View from above orbital plane
View from above orbital plane
View from above satellite
View from above satellite

Ground track
Ground track

The orbit data is extracted from the following two-line orbital elements,

1 16511U 86008B   14245.13398571 -.00000028  00000-0 -44394-4 0  5636
2 16511 082.9415 255.6067 0023175 247.0389 178.2926 13.75770286436157
Epoch (UTC): 02 September 2014 03:12:56
Eccentricity: 0.0023175
inclination: 82.9415°
perigee height: 962 km
apogee height: 996 km
right ascension of ascending node: 255.6067°
argument of perigee: 247.0389°
revolutions per day: 13.75770286
mean anomaly at epoch: 178.2926°
orbit number at epoch: 43615

The dashed part of the orbit path shows where the satellite is in the earth's shadow,  

DLR